GW3945 Weather Reports


time (UTC)temp
C
wind
direction
speed
KPH
gust
KPH
rain 1hr
cm
rain 24hr
cm
rain mn
cm
humidity
%
barometer
mb
20260906030120 23 207 0.0 0.0 0.00 0.56 0.56 99 1011.6
20260906025619 23 298 0.0 0.0 0.00 0.56 0.56 99 1011.6
20260906025118 23 263 3.2 3.2 0.00 0.56 0.56 99 1011.2
20260906024613 23 228 0.0 0.0 0.00 0.56 0.56 98 1010.7
20260906024107 23 217 0.0 0.0 0.00 0.56 0.56 98 1010.9
20260906023603 23 217 0.0 0.0 0.00 0.56 0.56 98 1010.8
20260906023057 23 223 0.0 0.0 0.00 0.56 0.56 98 1010.5
20260906022553 23 231 0.0 0.0 0.00 0.56 0.56 98 1010.3
20260906022048 23 216 0.0 0.0 0.00 0.56 0.56 97 1010.4
20260906021544 23 248 0.0 0.0 0.00 0.56 0.56 97 1010.2
20260906021043 23 223 0.0 0.0 0.00 0.56 0.56 97 1010.3
20260906020542 23 217 0.0 0.0 0.00 0.56 0.56 97 1010.4
20260906020037 23 216 0.0 0.0 0.00 0.56 0.56 97 1010.4
20260906015536 24 283 3.2 3.2 0.30 0.56 0.56 96 1010.2
20260906015036 23 288 4.8 4.8 3.25 0.56 0.56 95 1010.2
20260906014531 23 187 3.2 4.8 3.17 0.53 0.53 94 1009.9
20260906014026 26 175 0.0 0.0 0.30 0.05 0.05 87 1010.1
20260906013522 26 207 0.0 0.0 0.00 0.00 0.00 78 1010.2
20260906013017 27 207 0.0 0.0 0.00 0.00 0.00 78 1010.3
20260906012512 27 205 0.0 0.0 0.00 0.00 0.00 77 1010.3
20260906012011 28 198 1.6 1.6 0.00 0.00 0.00 73 1010.4
20260906011508 28 274 0.0 0.0 0.00 0.00 0.00 72 1010.1
20260906011002 28 222 0.0 0.0 0.00 0.00 0.00 71 1010.2
20260906010457 28 220 0.0 0.0 0.00 0.00 0.00 69 1009.7
20260906005954 29 229 0.0 0.0 0.00 0.00 0.00 69 1009.6
20260906005453 29 205 0.0 0.0 0.00 0.00 0.00 64 1009.8
20260906004951 29 207 0.0 0.0 0.00 0.00 0.00 68 1009.8
20260906004446 29 210 0.0 0.0 0.00 0.00 0.00 69 1009.8
20260906003941 30 210 0.0 0.0 0.00 0.00 0.00 66 1009.8
20260906003436 30 211 0.0 0.0 0.00 0.00 0.00 65 1010.0
20260906002931 30 211 0.0 0.0 0.00 0.00 0.00 65 1010.5
20260906002431 30 205 0.0 0.0 0.00 0.00 0.00 66 1010.3
20260906001926 30 193 0.0 0.0 0.00 0.00 0.00 70 1010.0
20260906001422 30 181 3.2 3.2 0.00 0.00 0.00 67 1010.4
20260906000917 30 199 0.0 0.0 0.00 0.00 0.00 73 1010.1
20260906000412 30 198 0.0 0.0 0.00 0.00 0.00 75 1010.1
20260905235907 30 203 0.0 0.0 0.00 0.00 0.00 75 1010.0
20260905235401 30 202 0.0 0.0 0.00 0.00 0.00 78 1010.0
20260905234856 31 220 0.0 0.0 0.00 0.00 0.00 76 1009.8
20260905234351 32 221 0.0 0.0 0.00 0.00 0.00 69 1009.9
20260905233846 32 224 0.0 0.0 0.00 0.00 0.00 63 1009.9
20260905233342 32 224 0.0 0.0 0.00 0.00 0.00 62 1009.9
20260905232841 33 227 0.0 0.0 0.00 0.00 0.00 61 1009.7
20260905232337 33 224 0.0 0.0 0.00 0.00 0.00 60 1009.8
20260905231832 33 232 0.0 0.0 0.00 0.00 0.00 60 1009.6
20260905231333 33 227 0.0 0.0 0.00 0.00 0.00 60 1009.7
20260905230830 33 223 0.0 0.0 0.00 0.00 0.00 61 1009.5
20260905230327 33 244 0.0 0.0 0.00 0.00 0.00 60 1009.6
20260905225826 33 253 0.0 0.0 0.00 0.00 0.00 61 1009.4
20260905225321 33 239 0.0 0.0 0.00 0.00 0.00 61 1009.6
20260905224816 33 225 0.0 0.0 0.00 0.00 0.00 58 1009.8
20260905224312 34 227 0.0 0.0 0.00 0.00 0.00 56 1009.7
20260905223806 34 224 0.0 0.0 0.00 0.00 0.00 56 1009.5
20260905223304 34 230 0.0 0.0 0.00 0.00 0.00 55 1009.5
20260905222759 34 226 0.0 0.0 0.00 0.00 0.00 54 1009.6
20260905222258 34 222 0.0 0.0 0.00 0.00 0.00 54 1009.8
20260905221754 35 224 0.0 0.0 0.00 0.00 0.00 52 1009.6
20260905221250 35 222 0.0 0.0 0.00 0.00 0.00 51 1009.6
20260905220746 35 228 0.0 0.0 0.00 0.00 0.00 51 1009.6
20260905220242 35 222 0.0 0.0 0.00 0.00 0.00 50 1009.7
20260905215741 36 249 0.0 0.0 0.00 0.00 0.00 48 1009.7
20260905215237 36 234 0.0 0.0 0.00 0.00 0.00 48 1009.4
20260905214733 36 258 0.0 0.0 0.00 0.00 0.00 48 1009.6
20260905214228 38 222 0.0 0.0 0.00 0.00 0.00 47 1009.7
20260905213718 37 220 0.0 0.0 0.00 0.00 0.00 44 1009.7
20260905213214 37 230 0.0 0.0 0.00 0.00 0.00 47 1009.6
20260905212709 37 227 0.0 0.0 0.00 0.00 0.00 45 1009.6
20260905212208 37 225 0.0 0.0 0.00 0.00 0.00 43 1009.7
20260905211703 37 221 0.0 0.0 0.00 0.00 0.00 45 1009.8
20260905211158 37 225 0.0 1.6 0.00 0.00 0.00 45 1009.7
20260905210655 37 222 0.0 0.0 0.00 0.00 0.00 47 1009.7
20260905210154 37 228 0.0 0.0 0.00 0.00 0.00 47 1009.9
20260905205654 36 223 0.0 0.0 0.00 0.00 0.00 48 1010.0
20260905205153 36 220 0.0 0.0 0.00 0.00 0.00 49 1010.0
20260905204653 36 267 0.0 0.0 0.00 0.00 0.00 49 1010.2
20260905204148 36 266 0.0 0.0 0.00 0.00 0.00 53 1010.1
20260905203643 36 218 0.0 0.0 0.00 0.00 0.00 52 1010.3
20260905203138 35 225 0.0 0.0 0.00 0.00 0.00 50 1010.2
20260905202634 35 232 0.0 1.6 0.00 0.00 0.00 50 1010.1
20260905202129 35 253 0.0 1.6 0.00 0.00 0.00 51 1010.4
20260905201624 35 226 0.0 0.0 0.00 0.00 0.00 50 1010.4
20260905201124 35 209 0.0 0.0 0.00 0.00 0.00 51 1010.5
20260905200620 35 228 0.0 0.0 0.00 0.00 0.00 50 1010.7
20260905200115 35 223 0.0 0.0 0.00 0.00 0.00 50 1010.8
20260905195614 35 230 0.0 0.0 0.00 0.00 0.00 51 1011.0
20260905195109 35 250 0.0 1.6 0.00 0.00 0.00 52 1011.1
20260905194609 35 215 0.0 0.0 0.00 0.00 0.00 52 1011.1
20260905194108 35 278 0.0 1.6 0.00 0.00 0.00 52 1011.0
20260905193603 35 225 0.0 0.0 0.00 0.00 0.00 50 1011.2
20260905193058 35 198 0.0 0.0 0.00 0.00 0.00 52 1011.0
20260905192553 35 203 3.2 3.2 0.00 0.00 0.00 50 1011.1
20260905192050 35 288 0.0 0.0 0.00 0.00 0.00 51 1011.1
20260905191548 35 233 0.0 0.0 0.00 0.00 0.00 51 1011.2
20260905191042 35 204 0.0 0.0 0.00 0.00 0.00 53 1011.1
20260905190540 35 222 0.0 0.0 0.00 0.00 0.00 52 1011.1
20260905190040 35 234 0.0 0.0 0.00 0.00 0.00 54 1011.3
20260905185539 35 224 0.0 0.0 0.00 0.00 0.00 54 1011.4
20260905185038 35 234 0.0 0.0 0.00 0.00 0.00 52 1011.5
20260905184533 35 225 0.0 0.0 0.00 0.00 0.00 54 1011.6
20260905184031 34 246 0.0 0.0 0.00 0.00 0.00 56 1011.8
20260905183526 34 207 0.0 0.0 0.00 0.00 0.00 58 1011.8
20260905183021 34 285 4.8 4.8 0.00 0.00 0.00 54 1011.8
20260905182521 34 225 0.0 0.0 0.00 0.00 0.00 56 1012.1
20260905182015 34 231 0.0 0.0 0.00 0.00 0.00 55 1012.0
20260905181510 35 277 1.6 3.2 0.00 0.00 0.00 53 1011.9
20260905181009 35 223 0.0 0.0 0.00 0.00 0.00 55 1012.3
20260905180504 35 230 0.0 0.0 0.00 0.00 0.00 55 1012.2
20260905175959 35 233 0.0 0.0 0.00 0.00 0.00 54 1012.3
20260905175458 34 244 1.6 3.2 0.00 0.00 0.00 54 1012.3
20260905174954 34 237 0.0 0.0 0.00 0.00 0.00 55 1012.4
20260905174449 34 231 0.0 0.0 0.00 0.00 0.00 55 1012.4
20260905173945 34 234 0.0 0.0 0.00 0.00 0.00 57 1012.4
20260905173441 33 265 0.0 0.0 0.00 0.00 0.00 60 1012.2
20260905172936 33 218 0.0 0.0 0.00 0.00 0.00 60 1012.6
20260905172434 33 286 0.0 1.6 0.00 0.00 0.00 59 1012.6
20260905171930 33 229 0.0 0.0 0.00 0.00 0.00 59 1012.8
20260905171427 33 229 0.0 0.0 0.00 0.00 0.00 61 1012.6
20260905170923 33 220 0.0 0.0 0.00 0.00 0.00 65 1012.6
20260905170419 33 210 0.0 0.0 0.00 0.00 0.00 62 1012.7
20260905165918 33 291 3.2 3.2 0.00 0.00 0.00 62 1012.8
20260905165414 33 254 1.6 1.6 0.00 0.00 0.00 64 1012.9
20260905164909 33 251 0.0 0.0 0.00 0.00 0.00 63 1013.0
20260905164409 32 219 0.0 0.0 0.00 0.00 0.00 64 1012.6
20260905163904 32 222 0.0 0.0 0.00 0.00 0.00 64 1012.8
20260905163400 32 234 0.0 0.0 0.00 0.00 0.00 63 1012.9
20260905162855 32 223 0.0 0.0 0.00 0.00 0.00 64 1013.2
20260905162350 32 240 1.6 1.6 0.00 0.00 0.00 66 1013.2
20260905161845 32 221 0.0 0.0 0.00 0.00 0.00 66 1013.4
20260905161344 32 222 0.0 0.0 0.00 0.00 0.00 66 1013.4
20260905160843 32 202 0.0 0.0 0.00 0.00 0.00 66 1013.3
20260905160337 32 202 0.0 0.0 0.00 0.00 0.00 67 1013.3
20260905155831 32 197 0.0 0.0 0.00 0.00 0.00 72 1013.4
20260905155330 31 197 0.0 0.0 0.00 0.00 0.00 73 1013.4
20260905154825 31 196 0.0 0.0 0.00 0.00 0.00 71 1013.6
20260905154320 31 195 0.0 0.0 0.00 0.00 0.00 76 1013.4
20260905153815 30 192 0.0 0.0 0.00 0.00 0.00 80 1013.5
20260905153312 30 196 0.0 0.0 0.00 0.00 0.00 80 1013.7
20260905152806 30 197 0.0 0.0 0.00 0.00 0.00 77 1013.7
20260905152306 30 197 0.0 0.0 0.00 0.00 0.00 81 1013.5
20260905151800 30 197 0.0 0.0 0.00 0.00 0.00 81 1013.7
20260905151256 29 198 0.0 0.0 0.00 0.00 0.00 81 1013.8
20260905150750 29 199 0.0 0.0 0.00 0.00 0.00 82 1013.6
20260905150250 28 199 0.0 0.0 0.00 0.00 0.00 84 1013.7
20260905145747 28 199 0.0 0.0 0.00 0.00 0.00 85 1013.7
20260905145242 28 199 0.0 0.0 0.00 0.00 0.00 85 1013.8
20260905144741 27 199 0.0 0.0 0.00 0.00 0.00 86 1013.7
20260905144237 27 200 0.0 0.0 0.00 0.00 0.00 87 1013.6
20260905143735 27 199 0.0 0.0 0.00 0.00 0.00 88 1013.9
20260905143235 26 199 0.0 0.0 0.00 0.00 0.00 89 1013.9
20260905142733 25 198 0.0 0.0 0.00 0.00 0.00 91 1013.9
20260905142228 25 203 0.0 0.0 0.00 0.00 0.00 92 1013.9
20260905141724 25 201 0.0 0.0 0.00 0.00 0.00 93 1014.0
20260905141220 25 201 0.0 0.0 0.00 0.00 0.00 93 1014.0
20260905140715 25 201 0.0 0.0 0.00 0.00 0.00 93 1014.0
20260905140209 25 201 0.0 0.0 0.00 0.00 0.00 93 1014.1
20260905135703 25 201 0.0 0.0 0.00 0.00 0.00 93 1014.0
20260905135200 25 201 0.0 0.0 0.00 0.00 0.00 93 1013.9
20260905134659 25 201 0.0 0.0 0.00 0.00 0.00 91 1013.9
20260905134158 25 201 0.0 0.0 0.00 0.00 0.00 92 1013.8
20260905133653 25 201 0.0 0.0 0.00 0.00 0.00 93 1014.0
20260905133154 25 200 0.0 0.0 0.00 0.00 0.00 94 1014.2
20260905132653 25 200 0.0 0.0 0.00 0.00 0.00 93 1014.0
20260905132148 25 200 0.0 0.0 0.00 0.00 0.00 92 1013.9
20260905131643 25 200 0.0 0.0 0.00 0.00 0.00 91 1013.9
20260905131138 24 200 0.0 0.0 0.00 0.00 0.00 92 1013.9
20260905130633 24 200 0.0 0.0 0.00 0.00 0.00 93 1014.1
20260905130132 24 201 0.0 0.0 0.00 0.00 0.00 93 1014.0
20260905125626 23 201 0.0 0.0 0.00 0.00 0.00 94 1013.8
20260905125123 23 201 0.0 0.0 0.00 0.00 0.00 95 1013.9
20260905124619 23 201 0.0 0.0 0.00 0.00 0.00 96 1014.2
20260905124115 23 201 0.0 0.0 0.00 0.00 0.00 96 1014.0
20260905123609 23 201 0.0 0.0 0.00 0.00 0.00 96 1013.9
20260905123106 23 201 0.0 0.0 0.00 0.00 0.00 96 1013.9
20260905122601 23 201 0.0 0.0 0.00 0.00 0.00 96 1014.0
20260905122101 23 201 0.0 0.0 0.00 0.00 0.00 96 1013.9
20260905121555 23 201 0.0 0.0 0.00 0.00 0.00 96 1013.7
20260905121051 23 201 0.0 0.0 0.00 0.00 0.00 97 1013.7
20260905120550 23 201 0.0 0.0 0.00 0.00 0.00 97 1013.8
20260905120045 22 201 0.0 0.0 0.00 0.00 0.00 97 1013.5
20260905115544 22 201 0.0 0.0 0.00 0.00 0.00 97 1013.4
20260905115039 22 201 0.0 0.0 0.00 0.00 0.00 97 1013.5
20260905114538 22 201 0.0 0.0 0.00 0.00 0.00 97 1013.4
20260905114038 22 201 0.0 0.0 0.00 0.00 0.00 96 1013.4
20260905113533 23 201 0.0 0.0 0.00 0.00 0.00 97 1013.2
20260905113028 23 201 0.0 0.0 0.00 0.00 0.00 96 1012.9
20260905112523 23 201 0.0 0.0 0.00 0.00 0.00 96 1012.8
20260905112019 23 201 0.0 0.0 0.00 0.00 0.00 96 1013.0
20260905111513 22 201 0.0 0.0 0.00 0.00 0.00 96 1013.0
20260905111013 22 201 0.0 0.0 0.00 0.00 0.00 96 1012.9
20260905110512 23 202 0.0 0.0 0.00 0.00 0.00 97 1012.9
20260905110007 22 201 0.0 0.0 0.00 0.00 0.00 97 1012.8
20260905105501 22 201 0.0 0.0 0.00 0.00 0.00 97 1012.8
20260905105001 22 201 0.0 0.0 0.00 0.00 0.00 97 1012.5
20260905104456 22 201 0.0 0.0 0.00 0.00 0.00 97 1012.5
20260905103951 23 201 0.0 0.0 0.00 0.00 0.00 97 1012.5
20260905103446 22 201 0.0 0.0 0.00 0.00 0.00 97 1012.7
20260905102942 22 201 0.0 0.0 0.00 0.00 0.00 96 1012.6
20260905102438 23 201 0.0 0.0 0.00 0.00 0.00 96 1012.6
20260905101933 23 201 0.0 0.0 0.00 0.00 0.00 96 1012.5
20260905101432 23 201 0.0 0.0 0.00 0.00 0.00 96 1012.6
20260905100927 23 207 0.0 0.0 0.00 0.00 0.00 96 1012.6
20260905100422 23 201 0.0 0.0 0.00 0.00 0.00 96 1012.4
20260905095921 23 201 0.0 0.0 0.00 0.00 0.00 96 1012.6
20260905095416 23 201 0.0 0.0 0.00 0.00 0.00 96 1012.4
20260905094910 23 201 0.0 0.0 0.00 0.00 0.00 96 1012.5
20260905094407 23 201 0.0 0.0 0.00 0.00 0.00 96 1012.4
20260905093905 23 201 0.0 0.0 0.00 0.00 0.00 96 1012.6
20260905093401 23 201 0.0 0.0 0.00 0.00 0.00 96 1012.3
20260905092856 23 201 0.0 0.0 0.00 0.00 0.00 95 1012.2
20260905092356 23 201 0.0 0.0 0.00 0.00 0.00 95 1012.3
20260905091851 23 201 0.0 0.0 0.00 0.00 0.00 94 1012.5
20260905091346 23 201 0.0 0.0 0.00 0.00 0.00 95 1012.4
20260905090845 23 200 0.0 0.0 0.00 0.00 0.00 95 1012.2
20260905090341 23 200 0.0 0.0 0.00 0.00 0.00 95 1012.2
20260905085839 23 201 0.0 0.0 0.00 0.00 0.00 95 1012.2
20260905085339 23 199 0.0 0.0 0.00 0.00 0.00 94 1012.2
20260905084835 23 199 0.0 0.0 0.00 0.00 0.00 94 1012.2
20260905084334 23 203 0.0 0.0 0.00 0.00 0.00 93 1012.4
20260905083829 23 211 0.0 0.0 0.00 0.00 0.00 95 1012.3
20260905083326 23 193 0.0 0.0 0.00 0.00 0.00 96 1012.3
20260905082820 23 198 0.0 0.0 0.00 0.00 0.00 96 1012.3
20260905082317 23 198 0.0 0.0 0.00 0.00 0.00 96 1012.4
20260905081811 23 199 0.0 0.0 0.00 0.00 0.00 96 1012.4
20260905081306 23 198 0.0 0.0 0.00 0.00 0.00 96 1012.5
20260905080805 23 198 0.0 0.0 0.00 0.00 0.00 96 1012.4
20260905080300 23 198 0.0 0.0 0.00 0.00 0.00 96 1012.0
20260905075758 23 198 0.0 0.0 0.00 0.00 0.00 95 1012.4
20260905075253 23 197 0.0 0.0 0.00 0.00 0.00 96 1012.2
20260905074751 23 199 0.0 0.0 0.00 0.00 0.00 96 1012.2
20260905074247 23 199 0.0 0.0 0.00 0.00 0.00 96 1012.1
20260905073737 23 199 0.0 0.0 0.00 0.00 0.00 96 1012.3
20260905073233 23 200 0.0 0.0 0.00 0.00 0.00 95 1012.2
20260905072732 23 205 0.0 0.0 0.00 0.00 0.00 95 1012.3
20260905072227 23 205 0.0 0.0 0.00 0.00 0.00 95 1012.5
20260905071724 23 198 0.0 0.0 0.00 0.00 0.00 96 1012.6
20260905071220 23 197 0.0 0.0 0.00 0.00 0.00 96 1012.4
20260905070714 23 197 0.0 0.0 0.00 0.00 0.00 96 1012.6
20260905070211 23 197 0.0 0.0 0.00 0.00 0.00 96 1012.6
20260905065709 24 197 0.0 0.0 0.00 0.00 0.00 96 1012.7
20260905065203 23 197 0.0 0.0 0.00 0.00 0.00 95 1012.7
20260905064659 23 198 0.0 0.0 0.00 0.00 0.00 96 1012.7
20260905064154 23 198 0.0 0.0 0.00 0.00 0.00 96 1012.8
20260905063653 24 198 0.0 0.0 0.00 0.00 0.00 96 1012.8
20260905063149 24 198 0.0 0.0 0.00 0.00 0.00 95 1012.7
20260905062645 24 198 0.0 0.0 0.00 0.00 0.00 94 1013.0
20260905062144 24 198 0.0 0.0 0.00 0.00 0.00 94 1012.9
20260905061639 25 199 0.0 0.0 0.00 0.00 0.00 94 1012.9
20260905061138 25 198 0.0 0.0 0.00 0.00 0.00 93 1012.9
20260905060634 25 200 0.0 0.0 0.00 0.00 0.00 93 1012.9
20260905060130 25 212 0.0 0.0 0.00 0.00 0.00 93 1012.9
20260905055628 25 204 0.0 0.0 0.00 0.00 0.00 93 1012.9
20260905055124 25 201 0.0 0.0 0.00 0.00 0.00 93 1012.9
20260905054620 24 199 0.0 0.0 0.00 0.00 0.00 93 1012.6
20260905054115 24 199 0.0 0.0 0.00 0.00 0.00 95 1012.7
20260905053615 24 196 0.0 0.0 0.00 0.00 0.00 95 1012.8
20260905053110 25 197 0.0 0.0 0.00 0.00 0.00 95 1012.8
20260905052609 25 197 0.0 0.0 0.00 0.00 0.00 94 1013.0
20260905052104 25 197 0.0 0.0 0.00 0.00 0.00 94 1012.9
20260905051559 25 221 0.0 0.0 0.00 0.00 0.00 94 1012.7
20260905051056 25 195 0.0 0.0 0.00 0.00 0.00 94 1012.5
20260905050552 25 194 0.0 0.0 0.00 0.00 0.00 94 1012.6
20260905050049 25 194 0.0 0.0 0.00 0.00 0.00 94 1012.7
20260905045543 25 194 0.0 0.0 0.00 0.00 0.00 94 1012.5
20260905045038 25 201 0.0 0.0 0.00 0.00 0.00 94 1012.6
20260905044532 25 192 0.0 0.0 0.00 0.00 0.00 93 1012.8
20260905044027 25 190 0.0 0.0 0.00 0.00 0.00 93 1012.9
20260905043526 25 198 0.0 0.0 0.00 0.00 0.00 91 1012.9
20260905043022 25 216 0.0 0.0 0.00 0.00 0.00 93 1013.0
20260905042520 25 220 0.0 0.0 0.00 0.00 0.00 93 1012.8
20260905042016 26 220 0.0 0.0 0.00 0.00 0.00 90 1012.9
20260905041511 25 237 0.0 0.0 0.00 0.00 0.00 90 1012.9
20260905041007 26 220 0.0 0.0 0.00 0.00 0.00 92 1012.9
20260905040506 26 220 0.0 0.0 0.00 0.00 0.00 91 1013.3
20260905040005 25 245 0.0 0.0 0.00 0.00 0.00 90 1013.2
20260905035500 25 243 0.0 0.0 0.00 0.00 0.00 93 1013.2
20260905034958 26 218 0.0 0.0 0.00 0.00 0.00 92 1013.2
20260905034458 26 220 0.0 0.0 0.00 0.00 0.00 91 1013.5
20260905033956 26 226 0.0 0.0 0.00 0.00 0.00 90 1013.3
20260905033451 25 215 0.0 0.0 0.00 0.00 0.00 92 1013.4
20260905032946 25 215 0.0 0.0 0.00 0.00 0.00 94 1013.5
20260905032441 25 203 0.0 0.0 0.00 0.00 0.00 95 1013.3
20260905031936 25 207 0.0 0.0 0.00 0.00 0.00 95 1013.3
20260905031432 26 223 0.0 0.0 0.00 0.00 0.00 92 1013.5
20260905030927 26 226 0.0 0.0 0.00 0.00 0.00 92 1013.5
20260905030423 26 216 0.0 0.0 0.00 0.00 0.00 91 1013.4